(326938) = 2004 CR56

Discovered at Socorro on 2004-01-23 by LINEAR.

Orbit

Orbit type: Main Belt

Note: WebGL enabled browser required.

epoch2024-03-31.0
epoch JD2460400.5
perihelion date2022-07-04.15291
perihelion JD2459764.65291
argument of perihelion (°)24.54174
ascending node (°)99.11287
inclination (°)6.54306
eccentricity0.1673003
perihelion distance (AU)1.9971179
Tisserand w.r.t. Jupiter3.5
ΔV w.r.t. Earth (km/sec)9.0
semimajor axis (AU)2.3983650
mean anomaly (°)168.72663
mean daily motion (°/day)0.26535720
aphelion distance (AU)2.800
period (years)3.71
P-vector [x]-0.55151389
P-vector [y]0.74527246
P-vector [z]0.37470173
Q-vector [x]-0.82654315
Q-vector [y]-0.54882575
Q-vector [z]-0.12496688
absolute magnitude17.38
phase slope0.15
uncertainty0
referenceMPEC 2024-C115
observations used331
oppositions11
arc length (days)7090
first opposition used2004
last opposition used2023
residual rms (arc-secs)0.73
perturbers coarse indicatorM-v
perturbers precise indicator003Ek
first observation date used2004-01-23.0
last observation date used2023-06-22.0
computer nameMPCLINUX
JD of orbit computation2456966.759010
perihelion JD uncertainty (days)1.2593E-04
argument of perihelion uncertainty (°)6.4837E-05
ascending node uncertainty (°)5.6280E-05
inclination uncertainty (°)6.8624E-06
eccentricity uncertainty 7.0684E-08
perihelion distance uncertainty (AU)1.8116E-07
Minimum Orbit Intersection Distances (in AU)
for orbit epoch: 2460200.5, reference: E2024-CB5
Mercury1.66659
Venus1.27934
Earth1.0143
Mars0.35395
Jupiter2.27832
Saturn6.90779
Uranus16.3247
Neptune27.2841

Observations

339 total observations over interval: 2004 01 23.33461 – 2023 06 22.319047
These data are available for download (format description).

Date (UT) J2000 RA J2000 Dec Magn Location Ref
2004 01 23.33461 11 02 05.63 +14 50 17.8 20.0   704 – Lincoln Laboratory ETS, New Mexico MPS 155901
2004 01 23.34748 11 02 05.45 +14 50 23.4 20.3   704 – Lincoln Laboratory ETS, New Mexico MPS 155901
2004 01 23.37299 11 02 05.24 +14 50 34.7 20.3   704 – Lincoln Laboratory ETS, New Mexico MPS 155901
2004 01 23.38567 11 02 05.04 +14 50 39.9 20.2   704 – Lincoln Laboratory ETS, New Mexico MPS 155901
2004 02 15.97690 10 50 23.20 +18 13 32.0 19.1 V 049 – Uppsala-Kvistaberg MPS 98989
2004 02 15.99427 10 50 22.29 +18 13 40.2 18.9 V 049 – Uppsala-Kvistaberg MPS 98989
2004 02 16.00727 10 50 21.65 +18 13 47.6 19.1 V 049 – Uppsala-Kvistaberg MPS 98989
2004 02 16.27996 10 50 08.66 +18 16 19.1 19.3   704 – Lincoln Laboratory ETS, New Mexico MPS 155901
2004 02 16.29169 10 50 08.01 +18 16 25.3 19.3   704 – Lincoln Laboratory ETS, New Mexico MPS 155901
2004 02 16.30337 10 50 07.45 +18 16 31.8 19.7   704 – Lincoln Laboratory ETS, New Mexico MPS 155901
2004 02 16.31507 10 50 06.88 +18 16 37.7 20.4   704 – Lincoln Laboratory ETS, New Mexico MPS 155901
2004 02 16.32674 10 50 06.24 +18 16 44.4 19.7   704 – Lincoln Laboratory ETS, New Mexico MPS 155901
2004 02 17.42873 10 49 11.74 +18 26 33.6 19.8 V 691 – Steward Observatory, Kitt Peak-Spacewatch MPS 98989
2004 02 17.45605 10 49 10.32 +18 26 47.9 20.0 V 691 – Steward Observatory, Kitt Peak-Spacewatch MPS 98989
2004 02 17.49619 10 49 08.27 +18 27 08.7 20.1 V 691 – Steward Observatory, Kitt Peak-Spacewatch MPS 98989
2004 02 20.06759 10 46 57.53 +18 49 33.0 19.0 V 049 – Uppsala-Kvistaberg MPS 100166
2004 02 20.08376 10 46 56.66 +18 49 41.1 18.9 V 049 – Uppsala-Kvistaberg MPS 100166
2004 02 20.10977 10 46 55.32 +18 49 54.1 18.8 V 049 – Uppsala-Kvistaberg MPS 100166
2004 03 12.87689 10 28 20.38 +21 09 05.5 19.6 V 049 – Uppsala-Kvistaberg MPS 155901
2004 03 12.89014 10 28 19.79 +21 09 08.7 19.7 V 049 – Uppsala-Kvistaberg MPS 155901
2004 03 12.90539 10 28 19.16 +21 09 12.3 19.7 V 049 – Uppsala-Kvistaberg MPS 155901
2008 04 05.36558 14 00 50.61 -00 19 12.5 20.2 V G96 – Mt. Lemmon Survey MPS 362708
2008 04 05.37401 14 00 50.14 -00 19 09.9 20.1 V G96 – Mt. Lemmon Survey MPS 362708
2008 04 05.38238 14 00 49.68 -00 19 07.1 20.3 V G96 – Mt. Lemmon Survey MPS 362708
2008 04 05.39083 14 00 49.17 -00 19 04.1 19.9 V G96 – Mt. Lemmon Survey MPS 362708
2008 05 07.35832 13 32 09.20 +01 19 27.6 20.4 V G96 – Mt. Lemmon Survey MPS 362708
2008 05 07.36674 13 32 08.80 +01 19 27.8 20.6 V G96 – Mt. Lemmon Survey MPS 362708
2008 05 07.37542 13 32 08.44 +01 19 27.3 20.4 V G96 – Mt. Lemmon Survey MPS 362708
2008 05 07.38370 13 32 08.08 +01 19 27.5 20.4 V G96 – Mt. Lemmon Survey MPS 362708
2010 11 08.36608 04 38 38.79 +14 38 15.6 19.4 V G96 – Mt. Lemmon Survey MPS 358826
2010 11 08.37244 04 38 38.50 +14 38 15.3 19.3 V G96 – Mt. Lemmon Survey MPS 358826
2010 11 08.37879 04 38 38.22 +14 38 15.1 19.5 V G96 – Mt. Lemmon Survey MPS 358826
2010 11 08.38515 04 38 37.93 +14 38 15.0 19.7 V G96 – Mt. Lemmon Survey MPS 358826
2010 12 02.33984 04 15 16.09 +14 41 04.4 19.3 V 703 – Catalina Sky Survey MPS 358826
2010 12 02.34653 04 15 15.73 +14 41 03.0 18.9 V 703 – Catalina Sky Survey MPS 358826
2010 12 02.35330 04 15 15.19 +14 41 02.9 19.2 V 703 – Catalina Sky Survey MPS 358826
2010 12 02.35995 04 15 14.68 +14 41 03.9 19.4 V 703 – Catalina Sky Survey MPS 358826
2010 12 09.87761 04 07 14.78 +14 50 31.2 19.8 V A13 – Observatoire Naef, Ependes MPS 358826
2010 12 09.89870 04 07 13.43 +14 50 33.6 19.8 V A13 – Observatoire Naef, Ependes MPS 358826
2010 12 11.80424 04 05 18.79 +14 53 49.9 19.7 V A13 – Observatoire Naef, Ependes MPS 358826
2010 12 11.82208 04 05 17.71 +14 53 51.5 19.7 V A13 – Observatoire Naef, Ependes MPS 358826
2010 12 11.84447 04 05 16.31 +14 53 53.9 19.8 V A13 – Observatoire Naef, Ependes MPS 358826
2010 12 13.97985 04 03 12.33 +14 58 01.3 19.8 V A13 – Observatoire Naef, Ependes MPS 358826
2010 12 13.99765 04 03 11.28 +14 58 03.2 19.8 V A13 – Observatoire Naef, Ependes MPS 358826
2010 12 14.01565 04 03 10.25 +14 58 05.4 20.1 V A13 – Observatoire Naef, Ependes MPS 358826
2011 01 09.14257 03 48 49.28 +16 27 33.0 19.8 V G96 – Mt. Lemmon Survey MPS 365476
2011 01 09.14959 03 48 49.21 +16 27 35.2 19.9 V G96 – Mt. Lemmon Survey MPS 365477
2011 01 09.15659 03 48 49.17 +16 27 37.2 20.1 V G96 – Mt. Lemmon Survey MPS 365477
2011 01 09.16360 03 48 49.10 +16 27 39.3 19.6 V G96 – Mt. Lemmon Survey MPS 365477
2011 01 29.16112 03 54 27.03 +18 18 00.3 20.8 V G96 – Mt. Lemmon Survey MPS 368526
2011 01 29.16910 03 54 27.32 +18 18 03.0 20.3 V G96 – Mt. Lemmon Survey MPS 368526
2011 01 29.17716 03 54 27.57 +18 18 05.8 20.4 V G96 – Mt. Lemmon Survey MPS 368526
2011 01 29.18524 03 54 27.90 +18 18 08.8 20.2 V G96 – Mt. Lemmon Survey MPS 368526
2012 04 21.40069 16 32 00.70 -14 40 56.4 20.6 V G96 – Mt. Lemmon Survey MPS 421865
2012 04 21.40760 16 32 00.45 -14 40 55.7 20.9 V G96 – Mt. Lemmon Survey MPS 421865
2012 04 21.41456 16 32 00.24 -14 40 54.8 20.8 V G96 – Mt. Lemmon Survey MPS 421865
2012 04 21.42154 16 31 59.95 -14 40 54.8 20.9 V G96 – Mt. Lemmon Survey MPS 421865
2012 04 28.41838 16 27 33.19 -14 31 31.2 20.5 V G96 – Mt. Lemmon Survey MPS 422820
2012 04 28.42595 16 27 32.97 -14 31 30.3 20.2 V G96 – Mt. Lemmon Survey MPS 422820
2012 04 28.43355 16 27 32.58 -14 31 29.8 20.8 V G96 – Mt. Lemmon Survey MPS 422820
2012 04 28.44122 16 27 32.22 -14 31 29.2 20.8 V G96 – Mt. Lemmon Survey MPS 422820
2012 05 16.40535 16 11 20.25 -14 09 23.8 20.1 V G96 – Mt. Lemmon Survey MPS 424893
2012 05 16.41116 16 11 19.93 -14 09 23.6 20.2 V G96 – Mt. Lemmon Survey MPS 424893
2012 05 16.41696 16 11 19.53 -14 09 23.2 20.1 V G96 – Mt. Lemmon Survey MPS 424893
2012 05 16.42278 16 11 19.14 -14 09 22.4 20.4 V G96 – Mt. Lemmon Survey MPS 424893
2012 05 21.45206 16 06 06.607 -14 04 52.56 20.8 g F51 – Pan-STARRS 1, Haleakala MPS 425970
2012 05 21.46222 16 06 05.934 -14 04 52.11 20.9 g F51 – Pan-STARRS 1, Haleakala MPS 425970
2012 05 21.47324 16 06 05.227 -14 04 51.53 20.4 r F51 – Pan-STARRS 1, Haleakala MPS 425970
2012 05 21.48288 16 06 04.589 -14 04 51.20 20.5 r F51 – Pan-STARRS 1, Haleakala MPS 425970
2013 08 09.44837 22 57 14.026 -15 20 19.28 21.3 w F51 – Pan-STARRS 1, Haleakala MPS 473649
2013 08 09.46261 22 57 13.420 -15 20 25.47 21.3 w F51 – Pan-STARRS 1, Haleakala MPS 473649
2013 08 09.47686 22 57 12.820 -15 20 31.40 21.2 w F51 – Pan-STARRS 1, Haleakala MPS 473649
2014 10 20.47686 07 53 42.24 +19 20 38.0 20.6 V G96 – Mt. Lemmon Survey MPS 542077
2014 10 20.48147 07 53 42.70 +19 20 37.5 20.9 V G96 – Mt. Lemmon Survey MPS 542077
2014 10 20.48607 07 53 43.08 +19 20 36.9 20.9 V G96 – Mt. Lemmon Survey MPS 542077
2014 10 20.49065 07 53 43.44 +19 20 36.2 20.9 V G96 – Mt. Lemmon Survey MPS 542077
2014 10 28.59625 08 05 37.800 +19 05 41.87 21.1 w F51 – Pan-STARRS 1, Haleakala MPS 544121
2014 10 28.60816 08 05 38.787 +19 05 40.70 21.3 w F51 – Pan-STARRS 1, Haleakala MPS 544121
2014 10 28.62009 08 05 39.749 +19 05 39.64 21.1 w F51 – Pan-STARRS 1, Haleakala MPS 544121
2014 11 16.40050 08 28 26.07 +18 46 42.6 20.2 V G96 – Mt. Lemmon Survey MPS 547466
2014 11 16.40511 08 28 26.36 +18 46 42.5 20.1 V G96 – Mt. Lemmon Survey MPS 547466
2014 11 16.40969 08 28 26.62 +18 46 43.0 20.3 V G96 – Mt. Lemmon Survey MPS 547466
2014 11 16.41428 08 28 26.89 +18 46 42.5 20.2 V G96 – Mt. Lemmon Survey MPS 547466
2014 12 19.15079 08 45 11.28 +20 08 03.9 19.8 R J04 – ESA Optical Ground Station, Tenerife MPS 560839
2014 12 19.16247 08 45 11.21 +20 08 07.6 19.9 R J04 – ESA Optical Ground Station, Tenerife MPS 560839
2014 12 19.17416 08 45 11.11 +20 08 11.5 19.7 R J04 – ESA Optical Ground Station, Tenerife MPS 560839
2014 12 19.18585 08 45 11.08 +20 08 15.2 20.1 R J04 – ESA Optical Ground Station, Tenerife MPS 560839
2015 01 10.31522 08 35 20.83 +22 48 47.5 19.1 V 703 – Catalina Sky Survey MPS 562356
2015 01 10.32027 08 35 20.49 +22 48 49.4 20.6 V 703 – Catalina Sky Survey MPS 562356
2015 01 10.32269 08 35 20.41 +22 48 51.0 19.4 r I41 – Palomar Mountain--ZTF MPS 562356
2015 01 10.32535 08 35 20.16 +22 48 52.7 19.4 V 703 – Catalina Sky Survey MPS 562356
2015 01 10.33041 08 35 19.94 +22 48 55.4 19.3 V 703 – Catalina Sky Survey MPS 562356
2015 01 10.38894 08 35 17.04 +22 49 24.0 19.6 r I41 – Palomar Mountain--ZTF MPS 562356
